User: anonymous   Login
Location: Elstree
(51.6403°N, 0.2969°W)
Time: 11:26:08
(UTC+00:00)
Language:

Cosmos 1943 Rocket - Orbit

View from above orbital plane
View from above orbital plane
View from above satellite
View from above satellite

Ground track
Ground track

The orbit data is extracted from the following two-line orbital elements,

1 19120U 88039B   21133.46805822 -.00000033  00000-0  73085-5 0  9991
2 19120  71.0133 191.1831 0021362 167.0114 193.1566 14.19222809708473
Epoch (UTC): 13 May 2021 11:14:00
Eccentricity: 0.0021362
inclination: 71.0133°
perigee height: 812 km
apogee height: 843 km
right ascension of ascending node: 191.1831°
argument of perigee: 167.0114°
revolutions per day: 14.19222809
mean anomaly at epoch: 193.1566°
orbit number at epoch: 70847

The dashed part of the orbit path shows where the satellite is in the earth's shadow,  

DLR